Wind_Speed
66 67 68 66 66 66 64 66 71 78 82 81 73 73 73 73 75 74 74 74 75 73 72 72 77 78 81 78 76 77 78 79
68 68 68 70 71 72 74 72 69 74 78 74 75 77 79 74 72 73 74 76 77 76 78 79 77 80 84 87 82 78 77 80
69 70 72 74 79 84 83 79 75 81 81 84 85 82 82 83 77 76 76 78 79 79 82 83 85 83 83 85 87 86 81 80
81 74 78 77 73 72 67 76 78 83 84 86 87 84 82 83 82 83 83 81 78 77 81 86 91 93 87 80 83 82 83 82
72 71 75 80 86 90 94 95 94 95 96 93 93 94 92 88 89 89 90 90 90 88 85 85 87 92 90 92 86 85 84 83
86 90 94 98 99 98 101 104 101 103 102 101 104 104 100 96 98 96 97 98 99 95 91 89 88 90 94 93 95 91 91 89
92 96 99 100 99 99 102 105 107 106 105 104 107 107 101 94 93 96 98 99 101 101 98 97 93 92 93 95 92 94 95 94
78 82 86 89 91 95 98 103 108 107 103 103 106 107 107 107 105 103 102 103 104 103 102 101 101 101 99 97 98 98 94 92
67 70 73 75 76 78 79 82 83 86 89 90 93 96 97 100 102 104 108 110 110 110 111 110 106 107 108 109 107 103 101 99
59 60 64 68 69 70 72 74 76 78 79 82 84 87 89 91 93 94 96 98 101 104 106 107 109 108 108 109 114 115 111 106
54 57 61 64 66 68 69 71 73 75 76 78 80 82 85 87 88 89 91 92 91 93 94 96 98 96 98 101 104 107 112 113
56 58 61 63 65 67 69 71 74 75 77 79 81 83 85 86 87 89 90 91 90 91 90 92 93 92 91 92 97 97 98 104
58 60 63 65 67 69 71 73 76 78 80 82 83 84 84 83 84 85 87 88 87 87 86 85 87 89 91 94 97 97 97 91
59 61 63 66 68 70 72 74 74 75 76 76 76 75 72 69 68 69 70 70 68 69 68 66 68 73 80 88 92 94 96 93
61 62 63 64 64 67 68 70 71 71 70 68 63 58 60 58 56 57 59 61 62 62 61 62 64 66 68 70 75 81 89 90
60 60 59 60 62 66 67 67 64 62 62 57 51 45 44 49 51 52 56 58 57 58 59 60 60 60 60 59 61 66 73 80
54 54 57 60 62 60 58 54 52 54 52 46 42 42 45 47 43 53 55 52 53 55 57 57 59 60 58 58 58 58 59 64
53 56 60 60 56 51 43 43 43 42 42 40 43 45 45 44 44 44 41 41 43 40 39 39 41 44 48 54 57 56 55 53
56 59 60 57 49 39 35 31 29 29 32 37 43 43 41 41 40 39 36 30 37 46 44 38 35 33 34 35 38 43 47 45
56 59 58 52 42 32 28 25 25 26 28 31 38 41 41 38 36 38 37 38 38 40 40 39 35 31 28 27 26 31 36 39
Wind_Direction
279 276 277 276 274 274 272 262 260 259 259 261 261 255 261 264 264 264 265 267 267 265 259 258 256 257 258 259 259 259 260 261
279 279 279 281 279 277 277 275 266 263 262 259 259 254 264 264 264 264 263 263 266 268 268 265 260 259 259 259 260 259 259 260
275 271 270 274 277 279 275 276 272 258 261 266 264 264 264 265 267 268 269 268 267 266 264 265 265 265 262 261 261 261 260 258
279 279 274 277 273 267 265 265 262 260 260 260 260 265 264 264 267 270 270 271 272 269 265 261 260 263 262 265 267 265 264 264
268 268 269 271 272 271 272 277 276 278 279 277 275 276 275 273 272 271 272 273 275 274 272 268 265 265 263 261 261 261 264 267
271 270 269 271 272 272 272 273 272 274 276 277 279 280 279 275 273 275 276 275 277 275 272 270 267 264 266 263 259 257 258 261
273 271 269 269 270 269 271 274 276 277 277 278 278 277 278 277 275 274 274 274 272 273 272 270 268 267 264 263 261 263 263 261
278 277 277 277 276 275 273 271 272 276 277 277 276 276 277 277 276 275 273 272 271 269 269 269 269 269 267 265 263 260 257 257
281 282 282 281 280 280 280 280 279 278 278 278 277 277 278 277 277 277 275 273 271 270 270 268 267 268 269 268 266 263 260 258
282 283 283 283 284 284 284 284 284 284 283 282 281 280 279 278 277 276 276 276 275 274 273 271 270 268 266 266 267 265 262 259
287 285 283 284 285 286 286 286 286 286 285 284 283 282 281 280 279 278 277 276 275 274 274 273 271 268 266 264 261 261 262 261
289 288 286 286 287 287 288 289 288 288 288 288 286 285 284 284 283 281 279 277 275 273 271 270 270 269 267 265 265 262 258 257
291 291 291 292 292 292 292 292 291 291 290 289 289 289 289 288 286 285 283 282 280 277 274 272 270 268 266 265 263 262 261 257
294 294 294 294 294 295 295 295 295 294 295 295 294 294 295 293 292 290 288 287 285 282 280 277 274 271 267 264 261 261 261 259
295 295 294 295 298 299 300 299 299 300 299 299 300 300 299 300 301 300 297 291 286 283 282 282 279 276 272 267 264 261 258 257
293 294 297 299 302 303 302 301 302 301 302 304 304 302 305 311 313 309 304 298 292 288 285 282 281 279 274 267 265 264 261 257
294 297 300 302 305 304 302 304 304 306 307 306 302 305 310 316 310 317 315 308 301 295 291 286 281 274 269 268 267 263 261 261
296 298 301 304 306 305 305 307 309 314 312 312 306 306 310 317 312 317 320 320 324 325 315 305 294 284 276 268 263 261 261 260
294 298 303 306 308 304 306 308 317 328 334 327 318 314 311 315 315 315 323 318 323 324 329 329 319 308 295 283 268 259 257 258
293 297 303 305 306 300 301 307 317 330 339 346 345 334 324 317 321 317 311 315 320 324 325 330 327 322 312 296 277 262 256 254
Height
5658 5658 5655 5652 5651 5650 5650 5649 5647 5646 5645 5642 5640 5639 5640 5640 5638 5637 5636 5636 5635 5637 5639 5640 5641 5642 5642 5642 5643 5645 5647 5649
5639 5637 5635 5633 5631 5628 5626 5625 5625 5623 5621 5619 5619 5617 5617 5617 5616 5616 5616 5615 5614 5613 5614 5614 5616 5617 5619 5619 5620 5623 5625 5626
5621 5620 5616 5613 5611 5609 5606 5603 5601 5600 5598 5598 5596 5594 5595 5594 5593 5594 5594 5594 5592 5592 5591 5591 5591 5591 5593 5595 5596 5598 5601 5604
5599 5597 5596 5593 5590 5588 5583 5581 5577 5575 5573 5572 5572 5570 5568 5568 5567 5568 5569 5570 5570 5571 5570 5569 5567 5568 5568 5569 5570 5573 5576 5579
5583 5580 5576 5574 5570 5566 5559 5555 5552 5549 5548 5546 5544 5543 5543 5542 5541 5540 5541 5543 5544 5544 5545 5546 5546 5543 5544 5546 5547 5548 5551 5554
5561 5557 5549 5545 5539 5536 5531 5526 5525 5522 5520 5516 5515 5516 5516 5516 5516 5513 5513 5512 5513 5515 5516 5518 5518 5519 5517 5519 5521 5525 5527 5530
5530 5526 5521 5519 5515 5511 5506 5500 5496 5493 5491 5488 5487 5486 5485 5484 5484 5485 5484 5484 5485 5485 5484 5487 5488 5489 5489 5491 5493 5495 5500 5504
5501 5496 5492 5488 5483 5479 5477 5473 5469 5466 5464 5461 5457 5455 5452 5450 5451 5452 5452 5452 5453 5455 5454 5454 5456 5456 5458 5460 5460 5464 5470 5474
5482 5477 5470 5464 5460 5456 5452 5447 5444 5441 5437 5434 5430 5426 5423 5420 5417 5414 5412 5414 5416 5418 5418 5419 5427 5424 5421 5420 5422 5430 5437 5443
5465 5461 5453 5445 5442 5438 5432 5426 5420 5416 5413 5409 5403 5398 5395 5391 5388 5385 5378 5377 5376 5376 5378 5378 5385 5389 5389 5385 5380 5384 5397 5405
5450 5444 5436 5430 5425 5420 5414 5408 5401 5396 5391 5385 5378 5372 5366 5360 5357 5353 5348 5346 5345 5344 5343 5341 5344 5351 5348 5346 5343 5346 5355 5363
5433 5426 5420 5414 5408 5402 5396 5389 5382 5376 5369 5362 5354 5347 5340 5335 5329 5322 5316 5312 5312 5309 5313 5309 5308 5312 5312 5312 5303 5308 5316 5322
5415 5409 5401 5395 5390 5384 5377 5369 5362 5354 5345 5337 5329 5321 5313 5307 5300 5293 5284 5279 5277 5274 5276 5277 5275 5274 5276 5273 5269 5271 5272 5289
5397 5392 5384 5377 5370 5365 5357 5348 5340 5331 5321 5312 5304 5296 5288 5280 5273 5266 5258 5252 5248 5244 5243 5245 5242 5240 5238 5236 5235 5237 5237 5249
5380 5375 5368 5361 5354 5345 5336 5328 5319 5311 5301 5292 5284 5277 5269 5261 5253 5245 5237 5230 5226 5222 5220 5219 5216 5213 5210 5208 5204 5205 5205 5215
5363 5358 5352 5345 5338 5328 5319 5310 5302 5293 5284 5277 5269 5261 5255 5247 5237 5229 5220 5212 5207 5202 5199 5195 5192 5186 5183 5182 5182 5180 5180 5183
5347 5343 5337 5331 5323 5313 5305 5296 5288 5281 5271 5264 5257 5250 5243 5236 5228 5215 5202 5192 5185 5180 5175 5172 5165 5161 5159 5159 5159 5159 5158 5160
5334 5329 5323 5317 5309 5300 5292 5285 5277 5270 5261 5253 5246 5239 5232 5224 5216 5209 5197 5184 5175 5168 5160 5152 5145 5139 5135 5135 5136 5138 5140 5144
5321 5315 5309 5302 5295 5288 5283 5276 5269 5261 5252 5243 5235 5227 5220 5213 5205 5198 5190 5183 5174 5161 5152 5143 5134 5127 5122 5119 5119 5121 5123 5128
5308 5302 5297 5290 5283 5278 5274 5268 5262 5254 5246 5238 5228 5218 5210 5203 5196 5189 5182 5175 5167 5159 5147 5137 5128 5120 5114 5110 5108 5108 5110 5113